Theta_e
362 362 361 361 361 361 361 360 359 359 360 359 359 359 358 358 358 357 356 357 358 358 359 358 357 358 358 358 357 356 358 358 357 358 360 361 359 358 358 359 360 360 359 359 359 359 360 361 360 360 360 359 358 357 358 359 359 358 357 357 356 355 353 351 350 350 349 347 347 348 348 347 347 347 347 347 348 347 345 345 343 342 341 342 344
361 362 362 362 362 362 361 361 360 361 361 360 359 359 359 359 359 358 357 357 358 358 359 358 357 358 358 358 358 357 359 360 359 357 359 361 361 359 359 360 361 360 360 360 361 361 362 362 362 361 360 361 360 358 356 357 358 358 358 358 357 356 355 354 353 352 352 352 351 350 351 351 351 350 350 350 349 349 349 349 349 349 347 345 346
361 362 363 362 362 362 362 362 362 361 360 360 359 359 359 359 359 358 357 357 358 358 358 358 358 359 358 359 360 359 359 361 360 359 359 361 362 359 358 360 361 361 360 361 361 361 362 362 362 360 359 361 361 359 357 356 357 357 357 358 357 357 357 357 356 355 355 354 353 353 352 352 352 353 352 352 352 350 349 348 349 350 349 347 346
361 362 363 362 363 362 362 362 362 361 360 359 359 359 358 359 359 359 358 357 358 358 358 358 358 360 360 360 360 361 361 361 360 360 359 360 361 360 359 360 361 362 361 360 361 361 361 362 361 360 359 361 362 361 359 359 359 358 358 358 358 358 358 358 358 357 356 355 355 354 353 353 353 353 353 354 353 351 350 348 348 348 347 347 348
360 362 363 362 362 362 362 362 361 361 361 359 359 359 358 358 359 359 358 357 357 358 359 358 359 360 361 360 360 361 361 361 360 359 358 360 360 360 360 361 362 362 362 361 360 361 361 361 361 360 361 362 363 362 361 361 361 360 359 359 359 359 359 359 359 359 358 357 357 356 356 356 356 355 355 355 354 352 350 350 350 350 348 348 348
360 362 363 362 362 362 362 362 361 361 360 359 359 358 358 358 359 359 359 358 357 357 359 359 359 360 360 361 360 361 361 361 361 359 357 358 360 360 359 360 361 362 362 361 361 361 362 361 361 361 361 362 362 361 361 362 363 362 361 360 359 359 360 360 360 360 360 359 359 359 358 357 357 357 356 355 355 355 354 354 353 351 350 349 349
360 361 362 362 362 362 362 362 361 361 361 360 358 358 358 358 358 359 359 359 357 356 358 359 360 360 361 361 360 361 361 361 361 361 359 357 359 360 359 359 360 362 362 361 360 360 361 361 361 361 361 362 362 361 362 362 363 363 363 362 362 361 361 361 361 361 361 360 360 360 359 359 358 358 357 356 357 357 357 357 356 354 353 352 352
360 361 362 361 362 362 362 362 361 361 361 361 360 359 359 358 358 359 359 359 358 356 356 359 360 360 360 361 360 360 361 361 361 362 361 359 359 360 360 360 358 360 361 361 360 359 359 359 360 360 360 362 362 361 361 362 363 363 363 363 364 363 362 361 361 361 360 359 359 359 360 360 360 359 359 359 359 359 359 358 357 357 357 356 356
359 360 361 362 362 363 362 362 362 362 362 362 361 360 359 359 359 359 360 360 359 357 357 357 360 361 361 362 361 360 360 361 361 362 362 362 360 358 360 360 359 358 360 360 359 359 358 356 355 356 358 359 360 359 359 360 360 361 363 364 364 363 361 360 360 360 359 358 358 358 359 359 360 360 360 360 360 360 359 359 358 358 357 357 357
359 360 361 362 362 363 363 363 362 362 362 362 362 361 360 360 360 360 360 360 359 358 358 358 359 361 361 362 362 361 361 360 360 359 358 360 361 359 359 360 361 360 359 360 359 359 358 357 355 354 355 356 355 353 353 354 353 353 356 360 362 362 361 360 359 359 358 358 358 358 358 359 359 359 360 359 358 357 357 357 357 357 356 356 356
360 360 361 362 363 363 363 363 363 363 363 363 363 362 361 361 361 361 361 361 360 360 360 360 359 359 361 362 362 362 361 360 359 356 354 354 358 360 360 360 362 362 361 361 360 359 358 358 357 357 357 357 354 351 350 351 350 349 349 351 355 357 359 360 360 360 359 358 358 358 358 359 358 357 357 357 356 357 358 358 357 357 356 356 357
360 361 361 362 364 364 364 364 364 364 364 364 364 363 362 362 362 362 362 362 362 361 361 361 360 359 360 361 362 361 361 360 358 355 353 351 351 357 360 360 361 362 362 362 361 360 358 358 358 358 359 360 359 358 357 356 354 352 350 349 350 352 354 356 358 359 359 359 359 359 358 358 357 357 358 357 357 358 358 358 357 357 357 357 357
361 361 362 363 365 365 364 364 365 365 364 364 364 364 363 363 362 363 362 362 362 362 362 361 361 361 360 360 361 361 361 361 359 356 354 352 349 351 356 358 359 360 362 362 361 361 361 361 360 359 360 360 360 361 362 361 360 358 355 353 353 352 353 353 354 355 357 358 360 359 358 357 357 359 359 359 359 359 359 357 357 357 357 357 357
361 362 363 364 366 365 365 365 365 365 365 365 365 365 364 363 363 362 362 363 363 363 363 361 362 362 361 360 361 360 360 360 360 358 356 354 352 351 353 356 357 358 360 362 362 362 362 363 363 362 361 362 362 362 362 363 363 363 361 359 358 357 357 356 355 355 354 355 357 358 358 359 359 360 360 359 358 358 358 359 358 357 356 356 355
362 363 364 365 367 365 365 366 365 365 366 365 365 365 364 364 364 363 362 362 363 363 363 362 363 362 362 361 361 360 359 359 359 358 357 355 354 352 353 355 357 357 359 361 361 362 363 363 364 363 363 363 363 362 363 364 364 363 362 361 361 360 360 360 358 358 356 356 355 355 356 358 359 359 359 358 358 358 358 358 357 355 354 354 353
362 363 364 365 366 366 365 365 365 366 365 365 365 365 364 365 364 363 362 362 362 363 362 362 362 362 362 362 361 361 360 359 358 358 357 356 355 354 354 355 357 357 359 360 361 362 363 363 364 364 364 364 363 361 361 361 362 363 361 361 360 360 361 360 359 359 359 358 357 356 357 358 357 357 357 357 356 356 355 355 354 354 353 354 355
362 363 364 364 365 365 364 364 365 365 365 365 365 364 364 365 364 364 362 362 361 362 362 362 362 362 361 362 362 361 361 359 358 357 356 356 355 354 354 356 357 358 359 360 360 361 362 363 364 364 364 364 363 361 359 358 359 362 362 361 361 360 360 359 359 359 358 358 358 358 358 358 357 357 357 356 355 354 353 353 353 353 354 354 354
362 363 364 363 364 364 363 363 365 365 365 365 365 364 364 364 364 364 363 361 360 361 362 362 362 362 361 361 362 362 361 361 359 357 356 356 355 354 355 357 358 359 359 360 360 361 362 362 362 363 364 364 363 362 359 358 359 361 361 361 361 360 360 359 360 360 359 359 359 360 360 359 358 358 356 355 355 354 353 352 352 353 353 353 352
362 364 364 362 364 364 363 364 364 365 365 365 364 364 364 364 364 363 363 361 360 360 361 361 362 362 361 361 361 361 361 361 360 358 357 356 354 355 356 358 358 359 360 360 361 361 362 361 361 360 361 361 361 360 358 357 359 361 362 361 361 360 360 360 360 361 362 361 362 362 361 360 358 357 356 356 355 355 354 353 353 352 351 350 349
363 363 363 362 363 364 363 363 364 364 365 365 364 364 363 363 363 363 363 362 361 361 360 360 361 362 361 361 361 361 360 361 361 359 358 357 355 354 356 358 359 360 360 361 361 362 362 362 361 360 359 358 358 357 355 354 356 359 361 361 360 359 359 361 361 362 363 363 363 362 360 359 358 357 356 356 356 355 353 352 351 350 350 349 348
363 363 363 362 363 363 363 363 363 364 364 365 364 364 363 363 363 363 363 362 361 361 361 360 360 361 361 361 361 361 361 361 361 360 359 358 356 355 356 359 360 360 361 361 360 361 361 362 362 362 360 359 356 354 353 352 352 355 358 360 360 359 360 361 362 361 362 362 361 360 358 357 356 356 356 356 355 353 350 349 349 349 348 348 347
364 364 364 362 362 363 363 363 364 364 364 365 365 364 363 363 362 363 362 362 362 363 362 362 361 361 362 362 362 363 363 361 361 361 360 358 357 355 356 357 359 360 361 361 361 361 361 362 363 362 361 358 356 355 354 353 352 352 353 355 356 356 356 358 359 359 360 359 359 357 356 355 355 356 355 353 351 350 349 346 346 345 343 342 343
365 366 365 363 363 363 363 364 364 364 364 366 365 365 364 363 363 363 364 363 364 364 364 364 364 363 363 364 364 365 365 363 362 361 360 359 358 357 356 356 357 359 361 361 361 361 361 362 362 362 361 359 357 356 354 353 353 353 353 353 353 354 354 354 355 357 357 357 356 355 355 355 355 353 351 351 349 346 343 341 340 340 340 339 339
366 367 365 364 364 364 364 365 365 364 365 366 366 365 365 364 364 365 366 365 366 366 366 366 366 366 365 365 365 366 366 366 364 361 360 359 359 358 357 356 356 356 358 361 361 361 361 362 362 362 361 359 358 356 355 354 353 353 353 354 354 354 353 353 354 356 356 355 355 355 355 354 352 351 350 347 342 339 338 339 339 339 338 337 337
368 368 366 365 365 365 365 366 366 366 365 366 367 367 366 366 366 366 367 367 367 367 368 368 368 367 366 365 367 367 367 368 367 365 362 360 359 358 357 357 356 355 356 358 360 360 360 360 360 361 361 360 358 357 355 354 354 353 354 355 355 355 354 354 356 356 355 356 355 355 354 351 349 347 343 339 337 338 339 339 338 338 337 336 336
369 368 367 366 366 365 366 366 367 367 366 366 368 368 367 367 367 368 368 368 368 368 368 368 368 367 366 366 368 369 369 370 369 368 365 362 360 359 358 357 356 355 355 356 357 358 358 358 359 359 359 359 358 356 355 354 354 354 355 356 356 356 355 357 359 357 356 355 355 353 350 348 345 342 339 338 339 341 339 337 337 337 337 336 336
368 368 367 366 366 366 366 366 368 368 367 366 367 368 368 367 367 369 369 368 368 369 368 368 368 368 367 367 368 369 370 370 370 370 367 363 361 360 358 357 356 354 353 354 354 354 355 356 356 356 357 357 355 355 354 354 354 355 356 356 356 357 356 357 357 356 354 353 351 349 346 343 341 340 339 340 341 340 337 335 335 336 335 334 336
366 366 365 365 366 366 366 366 367 368 368 366 366 367 368 367 367 369 370 369 369 370 369 369 369 369 367 367 367 369 371 371 371 371 369 365 362 360 358 357 356 354 353 353 352 353 353 353 354 354 354 354 354 354 354 354 354 355 355 355 356 355 354 354 353 352 351 348 346 344 342 341 341 339 339 340 340 338 335 334 334 335 333 334 335
365 364 363 364 365 365 366 365 365 366 368 368 366 367 368 368 368 368 370 370 370 369 369 370 370 368 367 368 369 371 372 372 371 371 370 368 365 362 360 357 355 355 355 354 352 352 352 352 353 353 353 354 355 354 354 354 353 353 353 353 353 352 351 351 351 350 349 346 343 342 340 340 340 338 338 338 338 336 333 332 333 334 334 334 335
365 364 363 364 365 365 365 364 365 365 366 368 369 368 367 367 368 369 370 371 370 369 369 369 369 369 369 369 370 371 372 372 371 370 368 367 366 364 362 359 356 356 357 355 352 353 354 354 353 354 354 354 354 354 354 352 352 352 352 351 350 350 350 349 348 347 345 342 340 339 338 338 338 337 337 336 336 335 333 332 333 334 333 334 334
368 368 368 369 370 369 366 363 365 366 366 367 370 370 366 365 365 367 369 370 370 368 368 368 368 369 369 370 371 370 369 370 369 368 367 366 364 363 362 361 358 357 355 352 351 353 356 355 355 354 354 354 355 354 354 352 351 351 349 346 345 345 345 344 344 342 340 337 336 336 336 336 336 336 335 334 334 334 334 333 333 333 333 333 332
371 372 372 372 372 371 369 368 369 370 369 370 372 372 369 366 365 364 364 366 368 368 368 367 367 366 367 368 368 368 368 368 367 366 365 364 363 362 361 360 358 357 354 352 352 355 356 356 357 356 355 355 355 354 353 352 350 346 343 341 340 339 339 339 339 337 336 335 335 335 335 334 334 334 334 333 332 333 334 334 333 333 333 332 331
370 371 372 372 371 372 372 372 372 372 372 372 372 370 369 368 367 364 361 360 361 363 365 365 366 365 365 365 365 365 366 366 365 364 363 361 360 360 359 358 357 355 353 352 353 356 357 357 358 357 356 356 356 356 354 351 345 341 340 339 338 337 337 336 335 335 336 335 334 334 333 333 333 333 333 332 332 332 333 333 333 332 332 331 330
366 367 369 371 371 371 371 372 372 373 372 372 370 369 368 367 368 367 364 360 358 358 359 361 362 363 363 362 362 363 363 363 363 362 361 360 358 358 359 357 355 352 351 352 355 358 359 359 359 358 358 356 354 352 348 344 340 339 339 337 336 337 336 334 333 335 335 333 332 332 332 332 332 333 333 333 332 332 332 332 331 330 330 329 328
361 362 364 367 368 368 368 369 370 370 370 369 369 369 368 368 368 368 367 364 362 362 361 359 357 359 359 359 360 360 360 361 361 360 360 359 358 358 358 355 351 349 349 352 356 359 360 359 358 357 355 351 346 343 341 339 339 339 338 337 337 336 334 332 333 335 333 331 332 332 332 332 333 332 332 332 331 331 331 330 328 327 328 328 327
357 358 360 362 362 362 364 366 367 367 367 367 367 367 367 367 367 366 366 365 365 365 363 356 352 354 355 356 357 358 358 359 359 359 359 359 358 358 358 356 353 351 350 353 356 357 357 355 352 350 347 343 339 339 339 338 338 338 337 336 335 334 333 333 334 334 333 332 332 331 331 332 333 332 332 331 331 330 330 329 327 325 324 326 327
352 354 356 357 358 359 362 365 365 364 365 366 366 365 365 365 365 364 365 364 364 365 361 353 350 352 352 351 353 356 357 358 359 358 357 357 357 358 359 358 356 354 352 352 353 352 350 347 344 342 341 339 337 336 336 337 337 336 335 334 333 333 334 334 333 333 332 331 331 331 332 332 332 332 331 330 329 328 328 328 327 326 325 326 327
349 349 349 351 355 357 359 360 360 360 361 363 365 365 365 365 364 364 364 363 364 364 360 354 354 355 351 347 349 353 354 355 356 354 351 351 352 353 355 355 354 352 351 349 347 345 344 341 338 337 337 336 335 335 335 336 335 334 334 335 335 335 334 332 332 332 332 331 330 331 332 331 330 330 330 328 327 327 326 326 327 327 327 327 326
348 347 345 345 350 354 354 355 356 357 358 360 362 362 364 364 363 363 363 362 360 360 357 356 356 354 346 342 344 347 347 347 347 345 343 344 344 345 346 348 349 348 346 344 342 340 339 336 335 335 335 335 335 335 334 333 332 332 333 334 334 332 330 329 330 331 331 330 330 330 330 329 329 329 329 328 327 327 327 326 326 326 326 326 326
347 348 346 345 348 351 352 353 354 355 356 357 359 360 362 362 362 363 362 360 358 358 356 354 352 348 340 338 341 344 343 342 341 340 340 340 340 341 342 343 344 344 342 339 337 336 334 333 333 334 335 335 335 335 334 333 332 332 331 330 329 329 328 328 329 329 329 328 329 329 329 328 327 328 328 327 326 326 326 327 326 326 327 327 326
345 346 347 347 347 349 351 352 352 352 353 354 356 358 359 359 359 359 357 356 356 354 349 345 342 338 336 336 339 341 342 341 339 338 339 338 338 338 339 338 337 337 336 334 333 332 331 331 331 332 334 335 335 334 333 333 332 331 331 330 329 329 329 328 327 328 328 327 328 328 328 328 328 329 328 326 325 326 327 327 327 327 327 327 326
342 344 346 347 348 349 350 350 350 350 350 351 352 354 354 353 354 354 352 351 348 344 340 336 333 333 334 335 336 337 338 338 336 336 336 336 335 335 336 334 333 332 332 332 332 332 332 332 332 332 333 333 333 332 332 331 330 330 331 331 329 328 328 328 327 327 327 327 327 328 327 327 327 328 327 326 326 328 328 327 327 326 326 326 326
340 342 344 345 346 347 347 348 348 349 349 349 349 348 348 349 349 348 347 343 339 336 334 332 331 332 332 333 335 335 334 334 333 333 333 332 332 332 332 331 331 331 331 331 331 331 331 331 331 330 331 330 330 330 330 330 330 330 329 329 328 327 326 327 327 327 327 328 328 328 328 327 327 327 328 328 328 328 328 327 327 326 326 326 326
338 340 341 343 344 345 346 346 347 347 346 345 344 343 343 344 344 342 340 337 335 334 333 332 331 331 331 332 333 333 331 330 329 329 328 327 327 327 327 327 327 327 327 327 327 328 328 327 326 326 326 326 326 326 326 327 328 329 329 329 329 328 327 327 327 328 328 329 329 328 329 328 328 328 328 327 327 327 327 327 327 326 325 324 324
336 338 339 340 341 342 343 344 344 344 342 342 340 339 338 339 338 336 335 334 333 333 332 331 330 329 329 329 329 328 326 325 324 324 323 323 322 321 321 321 321 322 323 323 322 323 323 323 323 322 322 322 322 322 322 323 324 325 325 326 326 326 326 327 327 328 329 330 329 328 328 327 327 327 327 326 326 325 325 325 325 325 324 324 324
332 334 336 337 337 337 339 339 339 339 338 337 336 334 332 332 331 331 330 330 329 328 327 325 324 323 322 322 322 321 319 319 318 319 320 321 320 319 318 318 318 319 320 319 320 320 320 320 320 320 320 320 319 319 319 319 320 321 322 322 321 321 323 324 324 324 325 327 328 328 328 327 327 326 326 325 325 324 324 324 323 323 323 323 323
326 328 329 330 330 330 330 330 330 330 330 330 329 328 327 326 325 325 325 324 324 322 322 321 320 319 318 316 316 316 315 314 313 313 315 315 315 315 315 315 316 316 316 316 317 317 317 317 318 318 317 317 317 316 316 316 317 319 320 321 321 321 321 322 322 322 322 323 324 325 326 327 326 326 326 325 325 324 323 323 322 322 322 322 321
320 321 321 322 322 323 323 322 322 323 322 322 321 321 321 321 321 321 320 320 320 319 319 318 318 317 316 315 315 316 316 315 315 314 314 314 314 315 314 313 313 313 313 314 314 315 315 315 315 316 316 316 316 316 315 315 316 316 318 318 319 320 321 321 322 322 322 323 322 323 324 326 326 325 325 325 325 324 323 323 322 322 321 321 320
314 315 315 315 315 316 317 317 318 318 317 317 317 317 317 317 317 316 316 316 317 317 317 316 316 315 315 314 314 314 315 317 318 318 318 318 318 318 318 317 315 314 314 313 314 314 315 315 314 315 315 315 315 315 315 315 315 315 315 315 316 317 318 319 319 320 320 321 322 322 324 324 325 325 325 324 324 324 323 322 322 321 321 320 321
311 311 311 311 311 311 312 312 313 313 313 313 313 313 313 313 313 313 313 313 313 313 313 313 313 313 313 312 312 312 312 313 314 316 317 319 319 320 320 320 319 318 317 315 314 314 314 313 313 313 312 312 313 313 313 312 312 312 312 312 313 314 315 316 317 317 317 318 319 322 323 324 324 324 324 324 324 324 323 322 322 322 321 321 321
309 309 308 308 308 309 309 309 309 309 309 309 309 309 309 309 309 309 309 309 309 309 309 309 309 309 309 309 309 309 308 308 309 310 311 312 314 315 315 315 314 313 312 311 311 311 310 309 309 309 309 308 308 307 307 307 307 307 308 308 310 311 313 314 314 315 315 315 316 318 320 320 321 321 321 320 320 320 320 320 320 320 320 319 319
Wind_Speed
33 32 31 30 29 30 30 30 28 26 25 24 24 22 22 22 21 20 20 19 19 19 19 19 18 17 16 15 16 16 15 15 15 15 15 15 14 14 13 13 13 12 12 12 12 12 12 12 12 12 11 11 10 10 10 10 10 10 10 9 9 9 10 10 11 13 14 12 12 13 12 13 14 15 16 16 14 15 17 19 21 21 22 22 22
33 32 31 31 31 31 30 29 29 28 26 25 24 23 22 22 21 20 20 20 20 19 19 19 19 19 18 17 16 16 16 16 15 15 15 15 15 15 14 14 14 13 13 13 13 12 12 13 13 12 12 12 12 11 11 11 10 10 10 10 10 10 10 11 11 13 14 13 12 13 12 12 14 15 15 16 15 15 16 18 19 20 22 23 22
33 32 31 31 31 31 30 29 29 29 28 26 25 25 24 23 22 22 21 20 20 20 20 19 19 20 19 18 17 17 17 16 16 16 16 16 15 15 14 14 15 15 15 14 14 13 13 13 13 13 12 13 13 12 12 12 12 11 11 10 10 10 10 12 12 12 15 15 13 13 13 13 14 15 15 16 17 18 20 21 20 19 21 24 25
33 32 32 32 32 31 30 30 29 29 29 28 27 26 25 23 23 23 23 21 20 20 20 20 20 20 20 19 19 18 18 17 17 17 17 16 16 15 15 15 15 15 15 15 14 14 14 14 14 13 13 13 13 13 12 12 12 12 11 11 11 12 11 12 14 14 14 16 15 14 14 15 16 17 17 17 18 21 23 24 23 23 25 26 25
33 33 32 32 32 32 31 30 30 30 30 28 28 28 26 24 23 23 23 23 22 20 20 21 21 20 20 20 20 20 19 19 19 18 17 17 16 16 16 16 16 16 16 16 15 15 15 15 14 13 13 14 13 13 12 13 13 12 12 11 12 12 12 13 14 15 15 16 17 15 14 16 17 18 18 18 19 22 23 24 24 24 27 28 26
33 33 32 32 32 32 32 31 31 31 30 29 28 28 26 25 24 24 24 24 23 22 21 21 22 22 22 21 20 21 20 20 20 20 18 17 17 16 16 16 16 16 16 16 16 16 16 16 16 15 15 15 14 13 12 12 13 13 12 12 12 12 12 13 13 14 15 16 17 16 15 16 17 18 19 19 19 19 19 19 20 24 27 28 28
33 32 32 32 32 33 33 32 31 31 30 29 27 27 27 26 25 24 24 24 24 23 22 22 22 23 23 23 22 21 21 20 21 21 20 19 18 17 17 17 17 16 17 17 17 17 17 17 16 16 17 17 16 14 13 13 13 14 13 13 12 12 12 12 12 13 15 16 16 16 16 16 16 18 18 17 17 17 17 17 19 21 23 24 25
34 33 32 32 32 33 33 32 31 30 29 28 27 26 26 26 26 24 23 24 24 24 23 23 22 22 23 23 22 21 21 21 21 21 21 20 19 19 18 18 17 17 17 17 17 17 17 17 17 17 18 18 18 16 13 13 13 13 13 12 12 12 12 12 12 14 15 15 16 15 16 16 16 17 16 14 14 15 15 16 19 20 18 19 19
34 33 32 32 32 32 31 30 30 29 28 28 27 26 25 25 25 25 24 24 24 24 24 23 22 22 22 22 22 22 21 22 22 22 21 20 20 20 19 19 18 18 17 17 17 17 18 18 18 18 19 20 21 20 17 15 14 13 13 12 12 12 12 12 12 13 14 15 15 15 16 16 16 17 16 13 14 16 15 16 20 22 22 23 22
33 33 32 32 31 31 30 29 29 29 29 28 28 27 26 25 25 25 24 24 23 23 23 23 22 22 21 21 21 22 22 22 24 25 25 22 20 19 19 19 18 18 17 17 17 18 18 18 19 19 21 23 25 26 24 21 20 19 16 15 14 13 13 13 14 14 14 15 15 15 16 16 16 17 16 14 16 19 19 19 20 22 24 25 25
34 33 32 31 30 30 30 29 29 29 29 28 28 28 27 25 25 25 24 24 23 23 23 23 23 22 21 21 22 22 22 23 26 29 29 27 23 19 18 18 18 17 18 18 18 18 18 18 18 19 21 24 26 27 27 25 24 23 22 21 20 19 17 16 15 15 15 16 16 15 15 16 18 18 17 16 17 19 20 19 18 22 24 23 23
33 32 31 29 29 30 30 29 29 29 29 28 28 28 27 25 25 25 24 24 23 22 22 23 23 22 21 21 22 22 22 23 27 30 30 31 28 23 18 17 17 17 18 18 19 18 18 18 18 18 19 21 22 22 22 22 21 21 22 22 23 23 23 22 21 19 18 18 18 17 17 18 20 20 17 16 15 17 20 21 19 22 24 22 23
31 31 30 29 29 30 29 29 29 28 28 28 27 27 27 27 26 25 24 23 23 22 22 22 22 22 22 21 21 22 21 23 26 29 30 31 31 28 22 18 17 17 18 18 19 18 18 18 18 18 18 19 20 20 19 19 18 18 19 21 22 23 23 25 27 27 26 23 21 20 19 18 20 21 19 17 16 18 22 24 22 22 24 25 27
30 30 30 29 29 29 29 29 28 28 28 27 26 26 28 28 26 25 23 23 23 23 23 23 22 22 23 22 22 22 22 22 25 28 29 30 30 30 27 22 19 19 19 19 19 19 19 18 18 18 18 17 18 19 19 17 15 15 17 19 20 20 20 21 23 26 29 30 29 27 23 21 23 25 23 21 21 22 23 25 25 26 29 31 33
28 29 29 29 29 29 29 29 28 27 27 27 27 27 27 27 26 25 23 23 23 23 23 23 23 23 23 23 23 22 23 23 24 26 28 28 28 29 28 24 21 20 20 20 20 20 19 19 19 19 18 18 19 19 18 16 14 14 15 17 18 18 17 18 19 21 23 25 28 28 26 24 23 24 24 22 22 23 24 25 27 29 32 34 32
27 28 29 29 29 30 30 29 28 27 27 27 27 27 27 26 26 25 23 22 22 22 22 23 23 23 24 24 24 23 23 25 26 27 27 27 26 27 28 25 22 22 21 21 21 21 21 21 20 20 19 19 21 22 22 19 16 15 15 17 18 18 18 19 20 20 20 21 24 25 23 22 22 22 23 24 24 25 25 25 25 26 28 30 28
28 28 29 29 29 30 30 29 28 27 28 28 28 27 26 26 25 25 24 23 22 22 22 22 23 24 24 24 24 24 24 25 28 29 30 29 27 28 27 24 22 23 22 22 22 22 22 22 22 20 20 21 22 23 24 24 21 18 17 17 19 19 20 19 19 21 22 22 24 25 25 25 24 23 24 24 24 25 25 23 22 21 22 22 23
29 28 29 29 29 29 30 29 28 28 28 28 27 27 26 25 25 25 25 25 24 23 22 22 22 24 25 25 25 25 24 25 27 30 30 31 30 29 26 22 22 22 22 23 23 22 23 24 25 23 22 21 21 22 23 24 23 20 19 18 19 20 20 19 18 19 20 21 23 25 24 22 21 20 22 22 20 19 21 21 19 19 19 19 20
29 29 29 29 28 28 28 28 28 27 27 27 26 26 26 25 25 24 24 24 24 23 23 22 22 23 23 24 26 26 24 24 26 30 31 31 32 30 25 22 22 23 22 22 22 22 23 24 27 29 28 25 24 24 24 26 24 21 19 19 20 21 19 18 17 17 17 18 19 19 17 17 18 19 20 19 17 16 18 19 18 17 18 19 20
29 28 28 27 27 27 27 28 28 27 26 26 25 25 25 24 24 24 23 23 23 23 23 23 22 22 22 23 24 26 25 24 25 29 30 31 32 31 27 23 22 22 22 21 21 21 22 23 25 29 30 29 28 28 28 29 27 24 21 20 21 20 17 15 15 15 16 17 18 16 14 15 17 18 17 16 16 16 16 17 16 16 17 19 20
26 26 26 27 27 27 26 27 27 26 25 25 24 24 24 23 23 23 23 22 22 23 23 23 22 22 21 21 22 23 24 24 25 28 29 30 31 32 29 26 23 22 21 21 21 21 21 22 23 25 26 26 26 27 28 29 30 29 26 24 23 20 18 15 14 15 17 18 18 17 15 14 14 13 12 13 14 13 12 13 13 13 15 17 18
25 25 26 26 26 26 26 26 26 25 24 25 25 24 24 23 23 22 22 22 21 22 21 21 21 20 20 20 21 21 22 24 25 27 29 30 31 33 32 28 25 23 21 22 23 22 21 21 21 22 24 24 23 23 24 25 27 29 30 29 26 24 23 21 18 18 20 18 16 14 13 12 10 10 10 10 9 8 7 9 11 13 16 17 17
25 25 26 26 25 25 25 25 25 24 24 25 24 23 23 22 21 21 21 20 20 20 20 20 19 19 18 19 19 20 21 23 26 28 29 30 31 33 33 31 29 26 23 22 23 22 21 22 21 21 22 23 22 20 20 21 23 25 26 26 24 23 24 23 20 18 17 14 12 11 10 9 9 8 7 7 6 6 7 9 10 12 14 16 15
25 24 25 25 24 24 23 24 24 23 23 23 23 22 22 22 21 21 21 20 19 19 19 19 19 19 18 18 19 20 20 22 25 30 32 32 32 32 32 32 32 31 26 22 22 21 21 21 21 20 20 21 21 19 18 19 20 21 21 21 20 22 22 20 16 14 13 11 10 9 7 7 7 6 5 5 7 8 8 8 8 9 11 13 14
23 23 24 24 23 23 22 22 23 22 22 22 22 22 22 21 21 21 20 20 20 19 19 19 19 19 18 18 19 20 20 21 23 27 31 33 33 33 33 32 33 33 30 24 20 21 22 20 19 19 19 18 18 17 17 18 18 18 18 18 19 21 20 15 11 11 10 9 8 7 7 6 5 4 5 6 7 6 5 5 6 8 9 11 14
21 21 22 22 22 22 21 21 21 21 22 22 21 21 22 21 21 21 21 21 20 20 19 19 19 19 18 18 18 18 19 20 20 22 27 31 32 33 33 32 31 32 32 28 24 23 23 20 18 17 17 17 16 16 17 17 17 17 18 18 20 21 18 12 10 10 9 8 8 7 6 5 4 4 5 5 3 2 3 5 6 6 7 9 12
18 19 19 20 20 21 20 20 20 20 21 21 20 20 22 22 21 21 21 21 20 20 20 19 19 19 18 18 18 18 18 20 20 19 21 26 29 31 32 32 32 32 33 33 31 26 23 23 21 18 17 16 14 14 16 17 17 18 19 19 19 18 16 12 10 9 8 8 8 7 5 4 4 3 3 2 1 2 4 5 6 7 8 9 10
16 17 18 17 18 19 19 19 19 18 20 21 20 20 20 22 22 22 23 22 21 20 21 20 20 19 18 18 18 18 18 19 19 18 17 20 23 26 29 32 34 34 34 35 33 27 22 22 21 17 15 14 12 13 13 13 14 16 18 17 15 14 16 15 11 8 7 7 7 6 5 4 2 1 1 1 2 3 5 7 7 8 9 9 9
14 15 16 16 16 17 18 18 18 17 17 19 20 19 20 20 21 21 22 22 22 21 20 20 20 19 19 18 18 17 17 17 18 19 19 19 19 19 21 25 30 32 32 32 30 24 19 19 18 16 15 15 15 15 14 12 12 13 14 14 13 13 13 14 11 7 6 5 5 4 3 2 1 1 1 3 4 6 8 8 7 7 8 8 8
13 13 14 13 13 14 16 17 17 17 17 17 18 19 20 21 21 19 19 21 23 23 21 18 18 18 18 18 18 17 16 15 15 17 20 21 20 19 17 19 22 24 27 28 26 22 20 20 19 18 17 17 17 18 16 14 14 14 14 14 13 13 12 11 8 5 3 3 3 2 1 1 1 2 4 5 6 6 6 6 5 6 7 7 7
12 12 11 9 7 9 12 15 15 16 16 15 15 16 18 20 21 21 20 19 22 25 26 24 20 18 18 17 17 17 18 17 16 16 17 18 20 20 19 18 17 17 21 24 23 20 20 21 20 19 19 18 18 19 18 16 16 16 15 14 12 12 11 9 7 5 3 3 2 1 1 2 3 5 5 6 5 4 4 4 4 5 5 6 7
12 11 11 10 8 7 9 11 11 12 14 13 11 11 13 15 18 20 22 21 20 22 25 27 26 25 24 22 19 17 17 17 18 18 17 16 16 16 18 19 18 17 18 20 20 18 19 20 20 20 20 19 19 19 19 17 17 17 16 13 12 11 10 9 8 6 4 3 2 1 1 2 3 4 3 4 3 3 3 3 3 4 5 5 6
9 8 8 9 10 9 8 10 10 11 11 11 10 9 11 12 13 14 17 20 21 21 22 25 27 28 28 28 26 23 20 18 17 17 17 17 15 14 14 17 18 17 17 18 17 16 18 19 19 19 20 20 20 20 19 18 18 17 15 14 12 11 10 10 10 8 5 4 3 2 1 0 1 1 1 1 2 2 2 3 3 4 5 5 6
7 6 5 6 7 8 9 10 9 8 8 8 8 9 10 11 10 9 10 12 15 19 21 23 25 27 27 28 28 27 25 23 20 18 17 16 15 14 13 14 16 16 17 17 15 14 17 18 17 18 19 17 16 18 18 17 17 16 15 14 13 10 10 12 11 8 6 5 4 3 2 2 1 1 1 1 1 1 1 2 3 4 4 5 6
6 6 6 4 5 8 9 7 6 6 6 6 6 7 8 9 9 9 8 8 8 11 14 16 20 23 24 24 24 24 25 25 23 21 17 15 14 14 12 13 15 16 17 17 15 14 14 14 13 15 15 13 14 18 20 18 17 16 15 14 13 12 12 12 10 8 6 6 5 4 4 3 3 3 3 2 2 2 1 1 2 3 4 5 5
5 5 5 4 5 6 5 4 4 5 5 6 6 7 7 7 8 8 8 7 8 8 7 9 11 15 17 19 20 20 20 21 20 19 16 13 13 13 13 14 15 16 16 16 15 15 15 14 15 17 17 15 17 19 19 18 16 16 15 15 14 14 13 11 10 9 8 7 6 6 5 5 5 5 5 3 3 2 1 0 0 2 4 5 4
5 5 4 1 3 3 3 2 2 4 5 6 6 6 7 7 8 9 9 8 9 8 5 6 6 8 10 11 13 14 15 16 17 15 13 12 13 14 13 13 14 16 16 17 18 19 18 18 20 23 23 22 22 20 17 15 15 16 16 15 15 14 13 12 11 11 9 8 8 8 7 6 6 6 5 4 3 2 2 2 3 2 1 4 5
7 7 6 5 3 1 3 4 3 4 7 7 6 6 7 7 7 9 9 7 7 7 5 5 6 6 5 7 9 11 12 14 14 14 14 14 15 13 11 12 16 19 20 20 22 21 18 17 19 21 22 22 21 19 17 16 15 15 16 16 14 14 14 13 12 11 10 9 10 9 8 7 7 6 5 4 4 3 2 2 2 3 2 3 3
4 4 5 6 4 1 3 5 5 5 7 7 6 6 7 6 7 8 7 5 6 7 5 5 5 5 4 5 8 11 11 11 13 15 15 14 13 12 11 13 19 22 21 18 17 16 17 19 20 20 20 19 17 17 17 17 16 15 16 15 15 15 15 14 13 12 11 11 10 10 9 8 7 6 5 4 4 4 3 3 2 2 2 2 2
4 2 4 5 3 1 2 3 4 5 5 5 4 5 5 4 5 7 7 7 7 7 5 5 5 4 4 5 9 11 11 11 12 13 12 12 13 14 15 17 21 24 22 19 18 19 21 23 22 21 20 19 18 17 16 16 15 15 15 15 16 16 15 14 13 13 12 11 10 10 9 8 7 6 5 4 4 4 4 4 4 3 3 3 2
7 5 4 4 3 2 2 2 3 3 3 2 1 1 1 2 3 4 5 6 6 6 5 5 5 5 5 8 11 11 10 11 12 13 13 15 16 17 18 18 20 20 21 22 24 25 24 24 23 21 20 19 19 17 16 14 14 13 13 14 15 16 15 14 14 13 12 11 10 10 9 8 7 6 5 4 4 5 6 5 5 5 4 4 3
10 8 5 4 3 3 1 1 3 3 2 2 1 3 4 1 2 3 3 5 6 7 7 7 7 8 9 11 13 13 12 11 11 13 17 20 19 17 18 18 16 14 15 17 19 20 19 18 18 17 16 16 16 15 14 13 12 12 12 12 13 14 14 14 13 12 11 11 10 9 8 7 6 5 4 4 5 6 6 6 5 5 5 5 4
11 9 7 6 4 4 3 1 1 2 3 4 5 6 5 2 1 2 3 5 6 7 8 9 10 13 13 13 14 16 17 17 14 13 15 19 21 19 19 19 16 13 14 15 16 17 18 16 15 14 15 15 15 15 15 13 10 9 10 11 12 13 13 13 12 12 11 10 9 8 7 6 5 5 5 5 6 6 6 6 6 6 6 6 5
11 10 8 6 5 5 4 2 1 4 7 8 8 6 4 3 3 3 4 6 7 8 10 11 12 14 15 15 15 16 17 19 19 15 12 14 16 17 18 18 15 14 15 16 16 16 18 17 16 15 15 15 15 17 18 16 12 9 8 9 10 10 10 10 10 10 9 8 8 8 7 6 6 6 6 6 6 7 7 7 6 6 6 6 7
10 10 9 7 7 6 5 3 3 5 6 7 7 7 6 6 6 6 6 8 9 11 13 14 15 16 16 15 16 17 16 16 17 16 13 12 14 14 15 16 15 14 16 18 17 16 17 18 18 18 17 16 15 15 16 16 14 12 10 9 9 8 8 8 8 7 6 6 7 7 7 7 7 8 8 8 8 8 8 7 7 7 7 7 8
10 11 10 8 8 7 6 5 5 5 5 6 7 8 9 9 10 10 10 11 13 14 15 16 17 18 17 15 15 17 18 17 17 17 15 14 14 14 15 16 16 16 17 18 19 19 20 20 20 20 19 18 16 14 13 12 12 12 12 11 11 10 10 11 11 8 4 4 5 5 6 7 8 9 9 9 9 10 9 8 8 8 8 8 8
10 10 10 9 8 8 8 7 7 6 6 6 7 8 9 10 12 12 12 13 13 14 14 15 15 16 17 17 17 18 20 21 22 21 18 17 16 17 17 16 15 15 16 16 17 18 19 19 19 19 19 18 17 15 13 11 10 9 9 9 10 10 10 11 11 9 7 7 7 6 6 7 9 10 10 10 10 11 11 10 10 10 9 9 9
11 11 11 10 10 9 9 9 9 9 9 8 9 10 10 11 11 12 12 12 13 14 15 16 17 18 20 22 23 25 26 27 26 24 23 22 22 22 21 19 17 17 17 17 17 17 18 18 19 19 18 17 16 15 13 12 10 9 8 7 7 7 7 8 9 8 8 9 9 7 7 8 10 11 11 12 12 13 13 13 12 11 11 10 10
14 13 13 13 13 12 12 12 12 12 11 11 10 11 11 12 12 12 11 11 12 13 14 15 16 18 19 21 22 24 26 27 27 26 25 23 23 23 23 21 19 18 18 19 19 19 19 19 19 19 18 17 16 15 13 11 10 8 7 5 4 4 5 6 6 6 6 6 5 5 7 9 10 12 13 14 15 15 15 15 14 14 13 13 13
18 17 17 17 16 15 14 14 14 14 13 13 13 13 13 13 14 13 13 13 13 14 14 14 13 14 16 17 18 19 21 23 25 27 26 25 23 23 21 20 18 17 16 17 18 18 18 18 17 17 17 16 15 13 12 11 10 8 6 4 3 1 2 3 4 5 6 5 3 3 5 7 9 11 12 12 12 13 13 14 14 14 14 14 14
20 20 21 21 21 19 17 17 16 16 16 16 15 15 15 16 16 16 15 15 14 14 14 14 13 13 14 15 16 16 17 18 21 24 26 26 26 25 24 24 23 21 20 20 20 20 19 18 17 17 16 16 15 14 13 11 10 8 6 4 3 1 1 1 2 3 4 4 4 3 4 4 5 5 6 6 7 7 8 9 10 11 13 14 14
Wind_Direction
190 190 192 194 194 195 197 199 200 202 203 204 206 208 209 210 211 210 209 209 208 207 208 210 212 214 217 218 219 220 221 222 224 225 226 227 228 230 229 227 228 231 236 239 239 238 236 236 238 237 236 237 239 241 241 236 232 232 232 231 232 231 229 236 254 270 275 275 275 276 275 272 267 262 268 273 271 274 282 287 289 289 286 282 277
191 190 190 192 193 194 196 197 197 199 201 202 205 207 208 209 209 208 209 209 208 208 209 210 211 213 215 216 217 217 218 219 221 222 224 225 225 227 227 225 225 228 233 236 237 237 237 237 239 238 236 236 236 239 242 240 236 234 231 228 232 233 227 230 247 267 277 276 274 275 274 270 268 265 264 269 272 271 270 273 277 279 282 282 277
193 190 190 191 192 193 194 195 196 198 200 202 204 206 207 208 207 207 209 210 208 209 210 210 210 211 213 214 214 215 215 216 218 220 221 222 223 225 225 224 223 226 230 233 234 236 237 238 240 240 238 235 234 237 241 241 240 239 237 233 236 238 232 231 239 257 274 279 276 275 276 272 270 269 268 267 271 275 277 278 275 271 274 280 279
192 191 191 191 191 192 193 194 196 199 201 203 204 206 207 207 206 207 209 210 209 209 209 209 209 209 211 212 211 212 213 213 216 218 219 220 221 224 224 224 224 226 229 232 235 237 238 239 242 243 240 236 235 236 238 239 238 238 239 237 237 240 239 235 237 247 264 274 275 273 275 274 271 271 271 269 270 274 279 283 282 278 280 282 277
192 191 191 191 190 192 193 195 197 199 202 204 204 205 207 206 205 205 208 209 209 208 207 207 207 208 210 211 211 212 212 213 215 217 219 220 221 222 223 224 225 227 230 233 234 236 238 240 243 243 240 237 235 235 235 236 236 236 237 236 236 238 238 236 238 243 252 264 271 273 271 270 271 271 269 268 271 276 278 280 281 281 285 284 278
192 191 191 191 191 192 193 195 197 199 201 203 204 205 205 205 204 204 205 206 207 208 206 206 206 208 210 210 211 213 214 213 215 216 218 219 220 222 223 224 225 227 230 232 233 234 237 240 241 241 240 239 237 236 234 233 235 238 237 236 237 236 237 238 238 242 249 257 266 271 269 267 267 268 269 269 270 273 277 277 276 279 283 285 284
191 190 191 191 191 192 193 194 196 199 201 202 203 204 204 205 204 204 204 204 206 207 206 206 206 207 209 212 212 212 213 214 215 216 217 217 217 220 222 224 225 227 229 231 232 234 237 239 240 239 239 240 239 236 233 231 235 240 239 237 237 238 240 243 242 245 252 259 265 270 272 271 268 267 270 270 267 268 274 276 276 277 279 281 282
190 190 191 192 192 193 193 194 195 197 198 200 202 203 204 204 204 204 203 204 206 207 207 207 206 206 209 211 212 211 212 214 215 215 216 216 216 218 221 223 225 226 228 230 232 235 237 239 241 241 241 242 241 237 231 228 233 242 243 240 236 236 241 246 250 253 256 262 267 270 274 276 274 273 273 269 266 267 268 271 277 282 282 281 276
190 190 190 192 192 191 191 191 192 193 194 196 198 201 202 202 203 203 202 204 206 208 209 208 206 206 208 209 209 210 212 214 215 215 214 213 215 218 220 222 225 227 228 230 232 234 236 240 243 244 243 243 245 245 237 228 231 240 243 242 238 239 243 246 249 253 257 262 265 268 272 273 274 276 275 273 276 279 280 280 286 292 295 294 287
189 189 191 192 190 187 187 187 189 190 192 193 195 197 199 200 201 202 203 205 207 208 209 208 208 208 207 207 207 208 211 215 217 218 217 213 212 216 220 221 223 225 227 229 232 234 236 240 244 246 246 247 251 254 251 245 246 249 249 246 243 244 247 249 250 252 256 261 263 265 268 270 273 275 277 285 289 288 290 292 295 299 299 298 295
188 190 191 189 185 183 184 185 186 188 190 191 192 194 196 198 200 201 203 205 206 207 207 208 210 210 209 208 208 210 213 216 220 223 223 220 215 213 217 221 221 223 225 227 231 235 237 239 243 245 246 248 253 258 260 258 256 258 259 255 251 248 247 250 253 254 256 259 260 262 265 269 275 276 279 288 291 289 293 298 298 298 296 295 296
188 188 188 185 182 181 182 183 185 187 188 189 190 192 194 196 198 199 202 204 205 206 207 208 211 212 212 212 212 215 217 218 222 226 228 227 223 217 216 221 222 223 226 228 231 235 237 238 241 242 243 245 249 255 261 262 261 261 263 263 260 255 250 250 252 253 257 261 261 261 264 272 279 279 279 286 290 292 295 296 293 291 292 291 290
187 185 184 181 180 181 181 183 185 186 187 188 188 190 192 195 197 199 201 203 203 205 208 210 211 212 214 216 217 220 222 222 224 228 230 231 229 225 221 223 225 226 227 229 231 233 235 235 237 239 240 243 245 246 251 257 262 265 268 269 266 263 258 254 252 251 253 258 261 263 264 269 275 277 280 286 292 294 292 291 292 293 292 290 288
185 183 181 180 180 181 182 184 186 187 187 187 188 191 194 197 199 200 202 203 204 207 209 210 211 212 215 218 220 223 226 226 227 230 233 233 233 230 226 226 229 231 230 231 232 232 233 233 234 236 237 238 240 242 244 245 249 256 263 267 269 269 266 260 256 255 253 253 256 259 260 261 265 272 278 284 287 287 287 288 291 293 290 288 288
184 182 181 180 180 182 183 185 187 187 187 188 191 194 197 198 200 202 204 206 206 208 210 212 212 213 216 218 221 225 228 229 229 232 234 235 234 232 229 227 230 232 232 232 233 234 233 233 234 237 237 236 237 240 241 240 240 242 248 256 262 263 260 257 260 262 259 256 256 257 257 258 261 269 279 283 282 282 285 288 290 291 291 291 291
184 182 182 182 183 184 185 186 187 188 188 191 195 197 199 199 201 203 205 208 209 209 211 214 214 216 217 218 220 224 228 228 228 230 234 235 233 231 228 226 228 231 232 233 234 235 235 234 234 236 237 238 240 241 243 244 244 243 244 250 254 255 255 254 256 258 260 262 263 263 261 259 260 271 282 284 282 283 286 288 289 288 289 292 295
184 184 184 185 185 186 187 188 188 190 191 194 197 199 199 200 200 201 204 208 210 210 212 215 216 217 218 217 218 223 226 226 226 229 231 232 230 227 224 222 225 229 232 233 234 234 235 234 234 235 236 239 241 244 248 250 248 245 245 250 253 255 256 256 257 260 262 267 272 275 274 270 270 277 285 286 287 288 285 283 284 287 288 292 297
184 184 185 186 186 187 189 189 190 191 193 196 198 199 199 200 201 201 204 208 211 213 213 215 217 217 218 218 218 221 225 226 226 228 230 230 229 225 219 218 222 227 230 233 233 235 236 235 234 234 235 238 240 242 249 252 249 244 246 250 252 253 254 255 259 262 265 270 276 279 277 275 276 281 285 288 293 291 282 278 283 290 292 292 296
185 185 186 186 185 186 187 188 190 192 194 196 198 199 199 201 202 202 205 208 211 213 213 215 217 217 218 220 219 221 224 227 226 227 228 230 228 223 216 215 220 224 227 231 232 233 235 237 238 238 237 238 238 241 247 250 247 244 246 249 250 251 252 252 254 257 262 267 272 276 280 284 287 289 291 295 299 293 283 279 281 285 289 293 297
186 185 184 183 183 184 185 187 190 193 194 196 198 200 200 202 203 202 205 208 210 212 214 215 218 219 220 221 221 222 224 225 227 227 227 229 229 222 215 214 219 221 224 228 230 232 234 236 238 240 241 241 241 243 247 251 250 247 247 248 249 250 251 252 253 255 262 268 272 277 286 290 288 288 289 290 288 284 282 280 274 269 277 287 292
183 182 181 181 183 184 185 188 190 192 194 195 198 201 202 204 204 204 206 209 210 213 214 216 220 222 223 223 223 223 223 223 226 228 227 228 229 223 217 215 218 220 222 226 230 233 234 235 236 238 241 244 245 245 247 250 252 252 250 248 249 250 252 256 260 264 268 271 273 275 280 285 285 283 282 282 280 279 281 281 273 267 276 287 293
179 179 179 181 183 184 187 188 188 191 193 194 197 201 203 206 206 205 208 211 211 212 214 216 220 223 224 224 224 224 224 222 224 226 228 229 229 226 221 217 216 218 221 225 230 233 234 235 235 236 238 243 248 249 248 250 252 253 254 255 256 255 255 257 263 267 269 270 271 273 278 280 280 279 281 284 286 284 281 281 279 276 278 283 287
177 177 178 180 183 185 186 186 186 190 193 194 197 200 201 205 206 206 208 210 210 211 212 214 219 222 223 223 223 224 224 222 222 224 227 230 231 229 226 222 218 217 220 226 230 232 235 236 237 236 236 241 249 253 252 250 250 252 256 260 262 262 260 260 261 262 263 266 270 274 276 273 271 274 277 278 284 289 287 283 281 279 279 281 283
175 175 176 179 181 183 185 186 187 190 192 193 195 198 200 202 204 204 205 207 209 210 211 212 215 219 222 225 226 224 222 221 223 226 228 230 231 231 230 227 223 220 221 226 230 232 234 236 237 236 237 242 248 252 253 251 251 254 258 260 262 264 262 259 257 256 257 263 267 269 271 271 270 269 266 268 280 288 285 278 278 285 293 297 296
174 174 175 177 180 181 184 187 189 191 192 192 194 197 199 200 202 202 204 206 209 210 210 211 214 217 221 226 227 224 222 220 221 226 230 232 232 232 232 231 228 224 222 224 229 232 235 236 236 236 237 241 246 249 250 250 249 250 253 253 256 260 258 249 241 247 255 259 261 263 268 267 258 252 263 276 285 287 289 296 301 305 307 307 303
173 173 175 177 180 182 184 187 190 191 193 194 196 198 199 200 201 202 204 206 208 210 211 212 215 217 219 223 225 224 223 220 218 222 228 230 231 232 233 233 232 229 226 225 227 229 234 237 238 236 235 237 241 242 244 247 247 243 243 243 245 252 254 241 227 236 247 250 250 256 262 259 254 261 272 280 287 303 324 324 322 323 323 318 314
174 176 178 179 182 186 188 190 190 192 194 197 199 200 201 203 203 202 205 208 208 208 211 213 215 216 217 221 225 225 224 223 220 217 218 222 225 229 231 231 231 229 227 226 227 229 232 234 236 237 237 237 238 239 241 243 241 236 235 237 241 249 256 251 236 232 239 242 243 249 259 265 269 273 273 278 323 355 355 349 345 345 338 328 323
178 180 182 183 186 189 191 192 193 194 197 200 203 203 203 204 207 206 206 208 207 207 210 211 213 215 216 219 222 223 223 223 222 216 209 208 213 220 224 225 226 226 224 225 225 225 227 229 229 229 229 228 226 228 231 230 229 229 229 231 236 248 259 262 257 243 233 236 239 242 251 260 266 274 294 18 39 21 16 11 0 348 341 336 334
182 186 189 190 190 190 192 195 196 199 199 199 204 209 206 205 207 210 211 211 210 211 212 212 214 215 216 218 217 218 222 224 221 217 213 208 206 208 211 217 220 222 224 223 219 214 214 219 219 215 214 215 215 214 212 206 208 216 221 223 231 245 256 261 263 252 230 227 234 237 241 252 260 312 2 34 41 25 14 12 1 343 337 337 338
179 187 192 196 196 195 196 198 199 201 202 201 203 208 210 209 208 208 209 211 213 215 217 219 220 219 219 221 219 219 226 229 224 220 219 220 220 215 211 215 219 222 224 220 208 201 206 213 213 211 209 210 209 206 203 199 201 209 214 217 225 234 238 242 247 245 229 221 233 245 265 292 333 12 22 24 26 16 4 360 347 332 335 342 344
168 176 180 186 190 196 203 204 201 201 206 208 204 200 204 211 212 211 210 209 211 214 218 221 224 222 222 224 226 227 232 234 231 228 227 229 231 228 225 224 222 223 222 210 196 196 207 210 209 208 208 208 208 205 202 201 204 209 209 207 212 219 221 222 223 224 228 232 233 263 318 340 359 14 19 15 11 3 346 339 334 332 337 340 341
162 163 162 161 159 174 201 207 200 196 200 205 203 193 196 208 216 218 220 219 216 215 217 221 225 227 227 228 230 232 235 236 236 238 240 240 239 235 231 226 222 219 215 202 192 199 208 209 209 209 206 206 207 204 202 203 206 205 199 194 198 204 206 209 208 205 211 215 206 236 325 358 7 8 11 7 356 346 339 340 345 343 338 335 338
149 148 149 153 153 163 187 196 193 194 195 193 192 193 198 209 215 217 221 226 228 227 226 225 227 230 232 233 234 233 235 238 241 244 247 246 239 232 227 223 219 214 204 194 194 205 209 209 211 208 205 207 208 203 200 201 200 195 190 189 192 193 194 202 203 193 187 193 190 191 239 326 360 352 360 350 326 327 343 343 344 344 337 335 340
111 110 118 139 153 171 188 190 185 185 187 184 188 196 202 209 212 207 207 215 224 230 233 233 233 234 234 236 236 234 235 237 241 246 251 247 236 228 220 211 205 202 197 193 198 208 210 210 208 202 199 200 196 187 184 185 184 184 183 184 183 178 178 188 191 179 171 182 185 187 199 197 185 206 208 215 237 269 321 325 341 353 343 335 341
100 98 101 124 171 190 193 187 179 181 186 189 194 199 199 202 207 210 206 202 207 217 223 228 233 235 236 237 238 236 235 236 238 243 245 240 229 220 205 185 179 183 191 198 203 207 208 206 195 186 185 181 171 166 167 169 171 174 175 172 168 164 167 175 177 169 171 183 186 185 189 183 180 192 198 202 222 239 283 328 356 357 340 328 335
119 116 117 145 193 200 187 175 185 195 201 207 212 214 213 210 209 213 216 215 217 214 198 195 216 231 236 238 238 236 234 232 231 232 234 231 221 206 188 175 174 178 185 193 196 196 198 191 173 166 168 169 166 165 164 163 164 167 168 164 159 159 165 170 170 168 175 184 181 173 173 179 188 196 196 193 201 215 220 221 36 17 359 336 318
67 71 74 151 221 202 157 140 159 175 186 199 208 215 222 223 221 223 222 217 219 216 177 153 189 222 230 232 234 231 226 221 218 217 214 209 201 193 186 187 185 179 178 184 184 182 181 178 171 169 170 171 167 163 160 161 162 161 161 158 156 160 167 168 167 170 176 177 172 171 176 182 186 194 199 193 192 201 206 221 222 214 316 310 296
47 40 21 352 322 234 174 173 167 171 188 197 199 206 216 220 219 223 223 213 208 208 182 165 187 200 200 212 218 209 199 197 193 185 179 179 179 178 179 180 176 171 173 180 181 175 166 158 159 163 165 165 162 158 158 161 162 159 157 155 154 160 166 164 163 170 173 170 168 172 178 180 179 186 195 190 183 189 199 225 251 242 244 274 298
46 47 25 5 352 288 188 188 181 181 193 200 199 204 214 217 216 219 218 204 194 196 191 185 188 173 155 179 188 176 167 167 165 160 158 163 169 172 171 168 171 174 176 174 170 164 153 145 144 147 149 151 154 155 155 158 162 162 160 155 153 160 166 166 166 169 170 167 168 171 174 174 175 183 192 191 190 197 205 218 257 276 283 303 326
357 7 12 1 344 293 191 180 173 172 181 192 204 211 215 223 224 218 214 210 204 197 181 163 152 136 133 160 168 163 156 152 149 147 148 154 162 167 167 165 169 174 171 161 156 157 155 149 147 145 144 145 150 153 154 157 160 160 159 157 156 160 166 167 166 166 167 166 167 169 170 171 174 182 192 198 203 213 227 236 241 251 268 287 297
343 333 332 335 322 281 219 164 129 121 135 152 184 211 209 240 250 231 216 208 195 171 145 129 123 127 141 151 154 155 156 153 148 145 145 147 149 151 153 154 158 160 157 153 154 156 154 152 151 148 145 145 146 146 146 150 154 155 158 162 163 162 163 165 164 164 165 164 166 170 172 174 181 191 197 205 218 228 238 246 249 251 257 268 283
343 333 325 321 313 293 274 100 88 93 119 143 71 35 36 32 235 230 209 181 155 139 129 116 112 123 139 148 150 146 138 132 132 136 139 139 137 134 136 141 144 144 142 142 144 144 144 145 144 140 137 137 138 136 135 138 146 154 160 164 164 162 160 160 161 162 165 167 171 175 175 176 189 205 208 217 233 240 243 250 261 268 267 267 273
339 335 330 323 312 308 319 351 73 87 78 77 66 44 32 38 160 180 155 137 125 121 120 117 118 123 129 140 148 142 129 121 119 118 123 129 130 129 131 134 134 134 132 130 129 131 132 130 125 124 127 129 130 129 127 123 126 142 156 161 162 160 159 161 163 167 171 174 175 177 181 187 203 218 225 235 247 253 254 256 262 268 272 274 272
341 335 331 329 329 332 339 351 33 61 60 63 68 63 51 63 85 93 108 116 114 116 120 122 122 122 121 126 132 127 118 119 122 118 112 117 121 123 128 129 126 123 123 121 122 130 135 133 128 127 130 131 134 137 135 129 121 122 136 148 152 152 155 161 166 171 177 180 178 182 192 205 220 232 239 245 254 262 264 261 261 267 273 278 278
351 343 338 338 339 337 340 5 46 64 70 75 79 76 69 71 79 87 99 107 110 114 118 118 117 113 109 108 109 105 101 106 111 109 105 106 105 104 109 113 110 111 113 113 112 119 127 130 129 127 125 125 127 134 140 143 143 141 139 138 138 141 148 155 159 163 176 187 191 198 210 220 234 246 251 254 262 269 268 265 267 269 269 271 275
4 1 360 359 353 348 355 16 38 57 75 87 90 86 81 80 84 89 96 102 106 108 108 109 111 109 103 98 97 97 97 97 97 95 97 100 95 91 93 98 100 102 105 108 111 114 117 119 120 119 118 117 116 117 124 136 147 153 156 156 158 163 170 174 173 170 176 198 212 221 230 236 246 256 258 259 267 272 270 269 272 272 270 273 278
17 20 20 17 12 13 21 32 43 54 64 76 87 91 91 90 91 93 95 100 103 104 104 104 106 105 103 103 102 101 101 100 98 95 95 93 87 83 82 83 87 90 90 89 93 98 102 105 110 113 115 116 117 116 114 116 124 137 151 162 170 176 181 186 187 189 198 212 219 230 247 254 257 258 253 248 254 262 263 264 267 268 265 267 273
30 35 37 32 28 27 31 39 48 55 59 65 76 83 88 92 95 97 100 103 104 105 106 106 106 105 105 107 109 111 111 109 104 101 100 99 99 98 93 85 81 85 90 91 93 95 99 103 108 112 115 117 118 118 117 117 121 128 135 148 165 176 182 189 195 202 212 217 220 232 250 258 262 266 265 262 265 269 269 267 268 268 266 267 267
39 43 48 47 42 37 35 41 48 53 57 61 66 71 77 83 85 88 93 98 100 103 105 107 108 109 108 108 110 112 114 113 112 110 108 107 107 109 106 100 94 94 97 102 107 111 114 116 118 119 121 122 123 124 125 125 124 123 122 126 144 169 187 197 203 212 219 220 226 249 261 260 260 264 264 263 264 264 263 264 266 266 265 267 266
48 49 51 52 50 46 42 45 50 53 55 59 62 64 68 70 71 73 78 83 86 89 92 95 99 103 105 107 109 109 109 110 112 114 114 114 113 112 112 111 111 110 109 109 111 113 114 116 119 120 119 118 119 120 120 118 116 112 107 102 103 126 201 216 223 229 224 216 222 263 275 269 265 264 265 267 268 267 266 267 269 266 263 266 270
53 53 55 56 55 53 51 52 55 57 58 59 59 59 62 64 65 67 71 73 73 75 78 81 83 86 90 95 99 100 101 104 108 110 112 114 116 118 120 121 122 121 119 118 117 116 113 111 111 110 109 107 106 104 100 97 94 87 78 72 69 46 321 260 256 252 234 223 229 252 263 263 266 274 282 286 286 291 297 297 289 277 269 268 270